User: anonymous   Login
Location: Norwich
(52.6280°N, 1.3030°E)
Time: 14:40:09
(UTC+01:00)
Language:

Meteor 1-22 Rocket - Orbit

View from above orbital plane
View from above orbital plane
View from above satellite
View from above satellite

Ground track
Ground track

The orbit data is extracted from the following two-line orbital elements,

1 08294U 75087B   16121.37397553  .00000154  00000-0  77891-4 0  9999
2 08294  81.2150  64.8387 0106352 126.2280 234.8779 14.08562987 86730
Epoch (UTC): 30 April 2016 08:58:31
Eccentricity: 0.0106352
inclination: 81.2150°
perigee height: 787 km
apogee height: 941 km
right ascension of ascending node: 64.8387°
argument of perigee: 126.2280°
revolutions per day: 14.08562987
mean anomaly at epoch: 234.8779°
orbit number at epoch: 8673

The dashed part of the orbit path shows where the satellite is in the earth's shadow,  

DLR